TimeCDT,TemperatureF,Dew PointF,Humidity,Sea Level PressureIn,VisibilityMPH,Wind Direction,Wind SpeedMPH,Gust SpeedMPH,PrecipitationIn,Events,Conditions,WindDirDegrees,DateUTC
12:46 AM,57.2,48.2,72,29.79,9.0,ENE,13.8,-,0.01,Rain-Thunderstorm,Light Thunderstorms and Rain,70,2013-04-29 05:46:00
12:53 AM,57.0,48.9,74,29.77,5.0,NE,13.8,-,0.04,Rain-Thunderstorm,Heavy Thunderstorms and Rain,50,2013-04-29 05:53:00
1:31 AM,55.4,48.2,77,29.80,10.0,North,10.4,-,0.01,,Overcast,360,2013-04-29 06:31:00
1:53 AM,55.0,48.9,80,29.79,10.0,North,11.5,-,0.01,,Partly Cloudy,360,2013-04-29 06:53:00
2:53 AM,53.1,48.0,83,29.77,10.0,NNE,10.4,-,N/A,,Clear,30,2013-04-29 07:53:00
3:53 AM,51.1,46.9,86,29.80,10.0,North,13.8,-,N/A,,Clear,360,2013-04-29 08:53:00
4:53 AM,48.9,43.0,80,29.81,10.0,North,12.7,-,N/A,,Clear,360,2013-04-29 09:53:00
5:53 AM,46.0,39.9,79,29.81,10.0,North,9.2,-,N/A,,Clear,360,2013-04-29 10:53:00
6:53 AM,46.0,39.9,79,29.82,10.0,North,10.4,-,N/A,,Clear,360,2013-04-29 11:53:00
7:53 AM,46.9,39.9,77,29.82,10.0,NNE,9.2,-,N/A,,Clear,20,2013-04-29 12:53:00
8:53 AM,50.0,42.1,74,29.82,10.0,NE,13.8,-,N/A,,Clear,40,2013-04-29 13:53:00
9:53 AM,55.9,45.0,67,29.78,10.0,ENE,12.7,-,N/A,,Clear,60,2013-04-29 14:53:00
10:53 AM,61.0,48.9,64,29.76,10.0,ENE,6.9,-,N/A,,Clear,60,2013-04-29 15:53:00
11:53 AM,66.0,50.0,56,29.73,10.0,East,9.2,-,N/A,,Clear,90,2013-04-29 16:53:00
12:53 PM,70.0,52.0,53,29.69,10.0,ENE,10.4,-,N/A,,Clear,70,2013-04-29 17:53:00
1:53 PM,72.0,53.1,51,29.69,10.0,SE,11.5,-,N/A,,Clear,130,2013-04-29 18:53:00
2:53 PM,73.9,52.0,46,29.66,10.0,SE,9.2,-,N/A,,Clear,130,2013-04-29 19:53:00
3:53 PM,75.0,48.9,40,29.64,10.0,ESE,8.1,-,N/A,,Scattered Clouds,110,2013-04-29 20:53:00
4:53 PM,77.0,50.0,39,29.61,10.0,Variable,6.9,-,N/A,,Partly Cloudy,0,2013-04-29 21:53:00
5:53 PM,77.0,50.0,39,29.59,10.0,ESE,6.9,-,N/A,,Scattered Clouds,120,2013-04-29 22:53:00
6:53 PM,77.0,48.9,37,29.56,10.0,SSE,12.7,-,N/A,,Clear,150,2013-04-29 23:53:00
7:53 PM,72.0,50.0,46,29.55,10.0,SSE,9.2,-,N/A,,Clear,150,2013-04-30 00:53:00
8:53 PM,66.0,50.0,56,29.55,10.0,SSE,5.8,-,N/A,,Clear,150,2013-04-30 01:53:00
9:53 PM,64.0,50.0,60,29.55,10.0,SE,10.4,-,N/A,,Clear,130,2013-04-30 02:53:00
10:53 PM,66.0,53.1,63,29.51,10.0,SE,12.7,-,N/A,,Clear,130,2013-04-30 03:53:00
11:53 PM,64.0,54.0,70,29.47,10.0,SE,11.5,-,N/A,,Clear,140,2013-04-30 04:53:00